This is the latest recevied weather packets stored in our database for station/object N3FU-13. If no packets are shown the sender has not sent any weather packets the latest 10 day(s).
| Time | Temp. | Humidity | Pressure | Rain* | Wind** | Luminosity | Snow |
|---|---|---|---|---|---|---|---|
| 1777210045 | 25.56° C | 91% | 1012.4 hPa | 0 mm | - | - | - |
| 1777209145 | 24.44° C | 94% | 1012.4 hPa | 0 mm | - | - | - |
| 1777208245 | 23.89° C | 95% | 1012.4 hPa | 0 mm | - | - | - |
| 1777207345 | 23.89° C | 97% | 1012.2 hPa | 0 mm | - | - | - |
| 1777206634 | 23.33° C | 98% | 1012.2 hPa | 0 mm | - | - | - |
| 1777206445 | 23.33° C | 98% | 1012.2 hPa | 0 mm | - | - | - |
| 1777205545 | 22.78° C | 98% | 1012.1 hPa | 0 mm | - | - | - |
| 1777204645 | 22.78° C | 98% | 1011.8 hPa | 0 mm | - | - | - |
| 1777203745 | 22.22° C | 98% | 1011.6 hPa | 0 mm | - | - | - |
| 1777203059 | 22.22° C | 98% | 1011.4 hPa | 0 mm | - | - | - |
| 1777202845 | 22.22° C | 98% | 1011.4 hPa | 0 mm | - | - | - |
| 1777202363 | 20.56° C | 97% | 1011.3 hPa | 0 mm | - | - | - |
| 1777201945 | 21.11° C | 98% | 1011.2 hPa | 0 mm | - | - | - |
| 1777201045 | 20.56° C | 97% | 1011.3 hPa | 0 mm | - | - | - |
| 1777200145 | 20.56° C | 97% | 1011.2 hPa | 0 mm | - | - | - |
| 1777199697 | 20.56° C | 96% | 1011 hPa | 0 mm | - | - | - |
| 1777199245 | 20.56° C | 96% | 1011 hPa | 0 mm | - | - | - |
| 1777198345 | 20.56° C | 96% | 1010.8 hPa | 0 mm | - | - | - |
| 1777197822 | 20.56° C | 96% | 1010.4 hPa | 0 mm | - | - | - |
| 1777197445 | 20.56° C | 96% | 1010.4 hPa | 0 mm | - | - | - |
| 1777196545 | 21.11° C | 96% | 1010.4 hPa | 0 mm | - | - | - |
| 1777195849 | 21.11° C | 96% | 1010.3 hPa | 0 mm | - | - | - |
| 1777195645 | 21.11° C | 96% | 1010.3 hPa | 0 mm | - | - | - |
| 1777194745 | 21.11° C | 96% | 1010.3 hPa | 0 mm | - | - | - |
| 1777193845 | 20.56° C | 96% | 1010.2 hPa | 0 mm | - | - | - |
* Rain latest hour (hover to see other rain measurements)
** Current wind speed in m/s (hover to see current wind gust speed)